Location: Philomena
(55.1756°N, 111.6233°W)
Time: 10:22:47
(UTC+00:00)

PCSat - Pass Details

Date: 08 December 2023
Orbit: 784 x 791 km, 67.0° (Epoch: 23 February)

Event Time Altitude Azimuth Distance (km) Brightness Sun altitude
Exits shadow 12:38:19 55° 322° (NW) 945 9.6 -24.1°
Drops below altitude 10° 12:43:37 10° 39° (NE) 2,365 12.4 -23.4°
Sets 12:46:06 0° 44° (NE) 3,298 13.3 -23.0°
